SCP
0 0 0 0 0 0 0 0 0 0 0 0 0 0 0 0 0 0 0 0 0 0 0 0 0 0 0 0 0 0 0 0 0 0 0 0 0 0 0 0 0 0 0 -0 0
0 0 0 0 0 0 0 0 0 0 0 0 0 0 0 0 0 0 0 0 0 0 0 0 0 0 0 0 0 0 0 0 0 0 0 0 0 0 0 0 0 0 0 0 0
0 0 0 0 0 0 0 0 0 0 0 0 0 0 0 0 0 -0 0 0 0 0 0 0 0 0 0 0 0 0 0 0 0 0 0 0 0 0 0 0 0 0 0 0 0
0 0 0 0 0 0 0 0 0 0 0 0 0 0 0 0 0 0 0 0 0 0 0 0 0 0 0 0 0 0 0 0 0 0 0 0 0 0 0 0 0 0 0 0 0
0 0 0 0 0 0 0 0 0 0 0 0 0 0 0 0 0 0 0 0 0 0 0 0 0 0 0 0 0 0 0 0 0 0 0 0 0 0 0 0 0 0 0 0 0
0 0 0 0 0 0 0 0 0 0 0 0 0 0 0 0 0 0 0 0 0 0 0 0 0 0 0 0 0 0 0 0 0 0 0 0 0 0 0 0 0 0 0 0 0
0 0 0 0 0 0 0 0 0 0 0 0 0 0 0 0 0 0 0 0 0 0 0 0 0 0 0 0 0 0 0 0 0 0 0 0 0 0 0 0 0 0 0 0 0
0 0 0 0 0 0 0 0 0 0 0 0 0 0 0 0 0 0 0 0 0 0 0 0 0 0 0 0 0 0 0 0 0 0 0 0 0 0 0 0 0 0 0 0 0
0 0 0 0 0 0 0 0 0 0 0 0 0 0 0 0 0 0 0 0 0 0 0 0 0 0 0 0 0 0 0 0 0 0 0 0 0 0 0 0 0 0 0 0 0
0 0 0 0 0 0 0 0 0 0 0 0 0 0 0 0 0 0 0 0 0 0 0 0 0 0 0 0 0 0 0 0 0 0 0 0 0 0 0 0 0 0 0 0 0
0 0 0 0 0 0 0 -0 -0 0 0 0 0 0 0 0 0 0 0 0 0 0 0 0 0 0 0 0 0 0 0 0 0 0 0 0 0 0 0 0 0 0 0 0 0
0 0 0 0 0 -0 0 0 0 0 0 0 0 0 0 0 0 0 0 0 0 0 0 0 0 0 0 0 0 0 0 0 0 0 0 0 0 0 0 0 0 0 0 0 0
0 0 0 0 0 0 0 0 0 -0 0 0 0 -0 0 0 0 0 0 0 0 0 0 0 0 0 0 0 0 0 0 0 0 0 0 0 0 0 0 0 0 0 0 0 0
0 0 0 0 0 -0 0 0 -0 0 0 0 0 0 0 0 0 0 0 0 0 0 0 0 0 0 0 0 0 0 0 0 0 0 0 0 0 0 0 0 0 0 0 0 0
-0 0 0 0 -0 -0 -0 -0 0 0 0 -0 0 0 0 0 0 0 0 0 0 0 0 0 0 0 0 0 0 0 0 0 0 0 0 0 0 0 0 0 0 0 0 0 0
0 0 0 0 -0 -0 -0 -0 -0 0 0 0 0 0 0 0 0 0 0 0 0 0 0 0 0 0 0 0 0 0 0 0 0 0 0 0 0 0 0 0 0 0 0 0 0
0 0 0 0 0 -0 -0 -0 0 0 0 0 0 0 0 0 0 0 0 0 0 0 0 0 0 0 0 0 0 0 0 0 0 0 0 0 0 0 0 0 0 0 0 0 0
0 0 0 0 -0 -0 -0 -0 0 0 0 0 0 0 -0 0 0 0 0 0 0 0 0 0 0 0 0 0 0 0 0 0 0 0 0 0 0 0 0 0 0 0 0 0 0
0 0 0 0 0 0 -0 0 -0 0 0 0 0 0 0 0 0 0 0 0 0 0 0 0 0 0 0 0 0 0 0 0 0 0 0 0 0 0 0 0 0 0 0 0 0
0 0 0 0 0 0 0 0 0 0 -0 0 0 0 0 0 0 0 0 0 0 0 0 0 0 0 0 0 0 0 0 0 0 0 0 0 0 0 0 0 0 0 0 0 0
0 0 0 0 0 0 0 0 0 0 -0 -0 0 0 0 0 0 0 0 0 0 0 0 0 0 0 0 0 0 0 0 0 0 0 0 0 0 0 0 0 0 0 0 0 0
0 0 0 0 0 0 0 0 0 0 0 0 -0 0 0 0 0 0 0 0 -0 0 0 0 0 0 0 0 0 0 0 0 0 0 0 0 0 0 0 0 0 0 0 0 0
0 0 0 0 0 0 0 0 0 0 0 0 0 0 0 0 0 0 0 0 -0 -0 0 0 0 0 0 0 0 0 0 0 0 0 0 0 0 0 0 0 0 0 0 0 0
0 0 0 0 0 0 0 0 0 0 0 0 0 0 0 -0 0 0 0 0 0 0 0 0 0 0 0 0 0 0 0 0 0 0 0 0 0 0 0 0 0 0 0 0 0
0 0 0 0 0 0 0 0 0 0 0 0 0 0 0 0 0 0 0 0 0 0 0 0 0 0 0 0 0 0 0 0 0 0 0 0 0 0 0 0 0 0 0 0 0
0 0 0 0 0 0 0 0 0 0 0 0 0 0 0 0 0 0 0 0 0 0 0 0 0 0 0 0 0 0 0 0 0 0 0 0 0 0 0 0 0 0 -0 0 0
0 0 0 0 0 0 0 0 0 0 0 0 0 0 0 0 0 0 0 0 0 0 0 0 0 0 0 0 0 0 0 0 0 0 0 0 0 0 0 0 0 0 0 0 0
Wind_Speed_500mb
28 33 38 43 44 45 44 46 43 40 36 37 35 36 42 47 53 55 59 57 44 38 36 36 32 31 23 17 9 6 4 7 9 7 9 8 8 11 17 25 15 19 12 10 52
33 31 36 38 44 45 47 47 47 46 43 38 37 35 39 42 48 65 62 54 51 46 40 36 35 22 12 9 7 8 7 13 8 9 8 6 5 11 12 15 7 14 14 21 59
41 38 35 37 41 43 44 46 48 46 47 43 37 35 37 37 43 55 42 49 50 50 44 36 33 19 13 17 14 11 11 11 8 7 6 3 4 7 26 4 19 28 33 47 66
41 44 39 38 38 40 42 44 46 46 45 45 37 35 35 29 14 5 5 7 21 43 47 44 36 16 12 12 27 7 25 17 7 10 3 6 4 5 21 12 22 25 32 50 61
40 41 43 38 41 41 41 41 42 45 46 42 42 38 35 28 46 24 17 18 11 17 31 41 39 29 13 13 23 10 9 12 28 14 12 11 13 10 14 15 14 25 44 49 54
40 38 42 39 42 42 41 42 42 43 48 43 42 44 42 33 52 42 52 44 23 18 23 37 22 28 18 13 13 13 40 19 13 15 12 10 10 9 19 21 19 27 54 52 52
35 34 43 42 41 42 47 47 49 47 47 49 44 47 56 70 26 19 35 27 23 24 22 29 36 18 13 6 32 14 8 5 16 12 9 14 10 16 17 33 29 39 53 53 49
35 32 39 41 40 46 52 56 55 49 48 48 42 48 40 58 59 42 30 26 30 26 24 16 27 24 11 9 7 12 7 8 8 19 11 17 13 13 25 38 42 45 51 51 47
33 32 37 41 39 43 48 49 52 53 47 45 46 51 20 31 63 55 49 27 24 27 23 14 18 16 14 6 5 6 10 10 8 25 7 12 12 9 23 36 46 50 53 50 44
33 35 37 39 39 41 49 50 60 46 39 44 50 25 29 28 38 60 51 53 20 23 16 17 14 7 5 10 26 11 9 7 13 9 11 12 15 8 5 29 39 42 45 47 49
31 36 39 35 37 42 52 66 17 13 40 39 17 50 24 22 25 43 45 43 28 25 14 13 7 23 20 10 8 11 11 15 5 2 9 12 12 21 19 12 16 29 31 31 32
32 34 37 32 37 39 42 49 36 35 13 62 26 28 32 12 11 44 51 37 24 15 11 5 23 10 10 7 7 4 10 9 0 1 7 5 13 15 12 13 21 26 29 29 28
33 34 35 34 37 31 39 43 44 27 5 11 47 32 36 29 19 48 66 41 13 15 16 11 7 22 12 10 15 9 10 8 6 4 5 3 12 11 9 20 32 35 32 33 37
32 34 32 33 29 34 43 58 51 21 5 10 17 16 31 19 14 45 67 37 10 28 13 10 9 17 12 14 14 14 13 11 11 7 6 2 8 11 11 14 11 39 45 48 42
31 30 29 27 32 31 44 47 35 23 7 17 15 16 20 14 1 36 62 20 14 12 15 16 7 10 10 9 13 7 10 14 7 7 4 3 4 14 8 14 17 28 34 44 49
30 27 27 23 23 26 38 38 8 5 8 6 5 10 10 16 8 31 34 13 17 9 7 5 0 2 10 5 9 14 15 16 10 6 2 11 10 9 10 11 9 1 4 12 16
27 25 25 22 21 24 30 27 6 4 7 5 1 8 11 9 9 17 28 14 13 12 4 7 4 5 2 13 7 10 13 6 6 3 10 2 6 15 11 11 5 15 25 19 13
28 27 21 18 18 18 23 6 6 7 4 7 7 17 7 10 5 16 31 20 6 10 9 11 2 9 4 8 14 11 11 11 14 8 8 6 11 11 7 23 6 24 21 18 15
30 26 19 16 11 9 10 6 9 6 10 19 1 3 7 5 4 7 13 19 10 11 12 9 5 1 2 3 12 9 7 7 12 6 6 6 11 15 7 11 14 18 19 18 17
26 26 18 9 5 1 8 4 4 4 2 6 14 11 6 6 8 8 16 8 5 14 5 10 8 3 2 3 5 7 10 4 5 8 4 5 7 8 9 9 8 14 17 20 22
17 11 5 11 12 4 5 10 7 11 7 5 7 8 8 8 2 3 14 4 21 6 7 8 7 3 9 9 12 5 2 3 7 7 9 6 10 11 8 16 17 14 21 29 31
6 2 5 26 4 3 6 9 6 6 4 2 4 2 3 8 5 5 13 14 40 8 7 1 8 6 7 7 7 6 12 10 8 8 2 4 7 10 7 19 26 16 25 29 27
8 9 11 29 6 6 4 7 6 4 5 2 2 1 5 3 6 5 10 10 38 24 25 13 1 6 8 9 8 8 8 7 8 4 8 9 8 5 5 9 7 15 17 16 13
9 3 14 36 19 11 9 5 8 8 7 4 4 2 6 9 3 9 5 6 5 11 9 13 7 12 12 7 10 11 10 8 8 5 6 9 6 7 7 11 11 16 10 12 21
21 11 15 8 15 16 9 11 10 7 9 5 8 6 1 6 5 6 2 7 6 8 9 9 7 4 10 5 7 8 10 15 15 13 10 8 12 20 13 12 10 6 4 7 8
27 15 18 5 21 28 21 18 16 6 14 6 7 5 8 7 3 3 6 8 0 4 6 6 4 7 6 11 9 4 5 4 5 4 13 10 15 12 18 14 4 5 4 7 9
44 32 21 16 9 20 18 22 21 16 17 14 17 9 7 11 28 21 15 9 10 6 3 4 7 5 6 5 11 6 26 13 9 10 11 13 23 9 11 14 19 25 27 31 36
Wind_Direction_500mb
319 306 294 283 279 277 281 279 276 277 285 286 285 277 275 276 270 268 263 260 268 264 263 270 273 283 280 278 248 201 58 242 235 187 259 311 178 160 176 150 154 175 194 224 176
326 312 308 300 288 277 272 275 277 276 277 286 282 279 277 282 283 271 261 259 260 259 256 254 266 276 244 243 232 172 158 228 232 175 224 265 215 160 145 133 116 166 185 174 171
333 324 309 307 304 291 279 268 269 272 273 274 276 277 276 281 295 286 267 254 248 249 246 240 246 254 241 213 206 194 212 208 234 240 253 274 241 205 144 237 194 185 163 166 172
318 328 312 305 307 299 291 281 267 265 269 269 274 271 270 265 255 231 118 19 238 238 236 231 231 210 211 212 207 195 248 239 203 206 244 270 228 239 181 200 213 211 201 176 181
313 318 320 306 307 306 297 290 278 265 261 265 264 261 251 238 238 247 268 311 301 242 230 218 205 199 186 215 225 206 240 245 240 208 233 269 258 200 226 179 183 194 188 189 190
315 317 320 307 307 301 295 292 283 266 260 257 256 254 231 240 260 255 256 268 263 245 225 207 211 205 223 225 186 224 219 228 249 238 229 209 241 223 211 191 187 194 192 195 198
322 313 315 312 307 308 302 302 289 275 255 254 254 245 229 242 253 238 240 248 243 235 221 217 203 210 219 237 236 221 173 228 224 219 243 204 260 231 194 188 182 187 197 199 206
320 312 316 314 311 310 308 298 291 280 260 246 252 243 241 250 250 245 231 232 227 223 225 214 212 233 230 267 147 154 129 184 229 175 227 174 253 252 198 180 176 187 197 204 210
321 314 314 320 308 312 310 306 295 278 262 247 246 234 249 244 234 233 223 229 231 219 220 199 202 213 203 196 129 221 188 196 274 201 151 174 252 250 210 195 186 189 195 205 211
318 312 319 316 313 312 312 304 301 273 261 248 242 238 239 233 228 225 227 226 239 209 208 203 200 188 206 175 202 161 146 194 210 215 183 193 252 287 151 213 213 201 204 209 214
319 313 318 317 316 312 317 320 331 232 222 207 218 219 238 226 233 219 210 198 203 189 191 202 170 207 193 168 164 163 184 199 224 184 171 209 223 257 262 269 235 222 209 215 224
322 316 320 316 319 313 317 327 285 285 253 218 212 235 224 215 224 206 193 176 182 190 168 181 230 189 186 179 201 204 180 177 11 331 168 180 244 255 268 257 236 234 229 228 228
319 316 319 316 319 316 314 327 300 236 225 191 222 235 245 226 235 196 185 184 147 168 198 189 239 173 175 182 190 210 192 185 171 118 53 94 309 278 256 234 250 243 242 239 239
317 318 319 316 320 320 319 340 336 169 241 190 194 217 203 188 253 200 185 166 175 190 143 262 250 171 154 205 163 211 185 166 141 106 203 113 269 295 273 265 243 246 239 241 243
315 316 318 316 316 327 332 341 324 171 251 157 160 188 179 199 90 182 184 182 169 165 140 218 191 148 185 190 163 192 150 143 118 106 120 244 116 269 292 278 258 252 257 244 242
317 314 316 312 312 329 338 336 357 175 270 211 149 145 126 209 318 161 178 194 162 117 42 178 334 132 179 88 139 138 87 48 53 77 312 203 171 253 218 218 252 135 222 180 164
317 315 313 305 311 338 342 336 10 340 336 328 152 196 136 159 192 177 177 186 162 116 171 353 356 310 140 83 33 97 92 34 18 9 219 6 162 247 242 248 286 159 127 119 129
314 316 306 296 308 338 341 17 45 282 335 324 238 159 200 146 237 182 163 178 211 100 122 139 276 185 186 160 173 163 150 153 179 190 206 115 217 253 262 241 201 144 122 125 131
310 313 307 304 300 343 337 31 202 321 347 332 215 150 155 162 115 126 180 190 175 170 134 129 227 333 163 121 149 194 185 162 105 20 86 204 271 303 151 85 112 128 136 126 118
302 312 301 273 248 146 66 262 270 276 117 300 359 31 325 156 174 156 155 210 263 189 138 179 120 357 117 111 48 142 162 79 358 119 218 256 275 236 133 160 141 122 130 125 120
316 312 270 160 159 109 150 225 269 276 267 47 2 312 351 341 147 218 160 206 217 187 157 122 97 265 125 204 171 124 214 82 118 142 157 143 252 236 190 167 150 151 130 125 122
268 347 227 171 119 145 202 205 224 298 309 253 203 210 103 331 301 215 191 192 205 118 173 231 114 148 180 263 210 171 188 149 138 220 232 153 253 330 133 150 138 137 134 132 121
243 238 219 190 188 187 180 276 288 255 266 344 304 336 47 41 327 267 200 252 185 189 173 180 141 79 14 354 350 215 194 146 123 80 191 133 238 338 72 97 105 136 152 160 165
222 250 200 209 232 154 149 224 278 260 285 284 297 264 153 216 186 291 314 1 328 204 179 94 152 162 178 193 149 188 189 154 124 123 173 217 172 157 155 138 142 138 168 219 232
221 224 190 188 223 210 167 188 206 223 232 229 352 253 164 330 152 286 229 13 358 154 115 130 149 111 112 348 82 93 156 169 193 191 165 198 187 213 187 175 190 195 225 250 239
193 187 182 203 186 191 203 202 198 197 166 224 185 247 214 201 235 193 352 20 55 310 175 180 135 127 176 126 87 110 198 147 298 174 235 157 256 239 245 255 203 337 330 245 303
218 197 189 191 162 180 212 199 200 158 221 195 203 166 184 218 180 143 102 40 313 207 238 122 127 97 190 151 104 352 227 198 202 206 179 207 237 170 236 277 296 310 299 293 294
Wind_Speed_850mb
28 33 38 43 44 45 44 46 43 40 36 37 35 36 42 47 53 55 59 57 44 38 36 36 32 31 23 17 9 6 4 7 9 7 9 8 8 11 17 25 15 19 12 10 52
33 31 36 38 44 45 47 47 47 46 43 38 37 35 39 42 48 65 62 54 51 46 40 36 35 22 12 9 7 8 7 13 8 9 8 6 5 11 12 15 7 14 14 21 59
41 38 35 37 41 43 44 46 48 46 47 43 37 35 37 37 43 55 42 49 50 50 44 36 33 19 13 17 14 11 11 11 8 7 6 3 4 7 26 4 19 28 33 47 66
41 44 39 38 38 40 42 44 46 46 45 45 37 35 35 29 14 5 5 7 21 43 47 44 36 16 12 12 27 7 25 17 7 10 3 6 4 5 21 12 22 25 32 50 61
40 41 43 38 41 41 41 41 42 45 46 42 42 38 35 28 46 24 17 18 11 17 31 41 39 29 13 13 23 10 9 12 28 14 12 11 13 10 14 15 14 25 44 49 54
40 38 42 39 42 42 41 42 42 43 48 43 42 44 42 33 52 42 52 44 23 18 23 37 22 28 18 13 13 13 40 19 13 15 12 10 10 9 19 21 19 27 54 52 52
35 34 43 42 41 42 47 47 49 47 47 49 44 47 56 70 26 19 35 27 23 24 22 29 36 18 13 6 32 14 8 5 16 12 9 14 10 16 17 33 29 39 53 53 49
35 32 39 41 40 46 52 56 55 49 48 48 42 48 40 58 59 42 30 26 30 26 24 16 27 24 11 9 7 12 7 8 8 19 11 17 13 13 25 38 42 45 51 51 47
33 32 37 41 39 43 48 49 52 53 47 45 46 51 20 31 63 55 49 27 24 27 23 14 18 16 14 6 5 6 10 10 8 25 7 12 12 9 23 36 46 50 53 50 44
33 35 37 39 39 41 49 50 60 46 39 44 50 25 29 28 38 60 51 53 20 23 16 17 14 7 5 10 26 11 9 7 13 9 11 12 15 8 5 29 39 42 45 47 49
31 36 39 35 37 42 52 66 17 13 40 39 17 50 24 22 25 43 45 43 28 25 14 13 7 23 20 10 8 11 11 15 5 2 9 12 12 21 19 12 16 29 31 31 32
32 34 37 32 37 39 42 49 36 35 13 62 26 28 32 12 11 44 51 37 24 15 11 5 23 10 10 7 7 4 10 9 0 1 7 5 13 15 12 13 21 26 29 29 28
33 34 35 34 37 31 39 43 44 27 5 11 47 32 36 29 19 48 66 41 13 15 16 11 7 22 12 10 15 9 10 8 6 4 5 3 12 11 9 20 32 35 32 33 37
32 34 32 33 29 34 43 58 51 21 5 10 17 16 31 19 14 45 67 37 10 28 13 10 9 17 12 14 14 14 13 11 11 7 6 2 8 11 11 14 11 39 45 48 42
31 30 29 27 32 31 44 47 35 23 7 17 15 16 20 14 1 36 62 20 14 12 15 16 7 10 10 9 13 7 10 14 7 7 4 3 4 14 8 14 17 28 34 44 49
30 27 27 23 23 26 38 38 8 5 8 6 5 10 10 16 8 31 34 13 17 9 7 5 0 2 10 5 9 14 15 16 10 6 2 11 10 9 10 11 9 1 4 12 16
27 25 25 22 21 24 30 27 6 4 7 5 1 8 11 9 9 17 28 14 13 12 4 7 4 5 2 13 7 10 13 6 6 3 10 2 6 15 11 11 5 15 25 19 13
28 27 21 18 18 18 23 6 6 7 4 7 7 17 7 10 5 16 31 20 6 10 9 11 2 9 4 8 14 11 11 11 14 8 8 6 11 11 7 23 6 24 21 18 15
30 26 19 16 11 9 10 6 9 6 10 19 1 3 7 5 4 7 13 19 10 11 12 9 5 1 2 3 12 9 7 7 12 6 6 6 11 15 7 11 14 18 19 18 17
26 26 18 9 5 1 8 4 4 4 2 6 14 11 6 6 8 8 16 8 5 14 5 10 8 3 2 3 5 7 10 4 5 8 4 5 7 8 9 9 8 14 17 20 22
17 11 5 11 12 4 5 10 7 11 7 5 7 8 8 8 2 3 14 4 21 6 7 8 7 3 9 9 12 5 2 3 7 7 9 6 10 11 8 16 17 14 21 29 31
6 2 5 26 4 3 6 9 6 6 4 2 4 2 3 8 5 5 13 14 40 8 7 1 8 6 7 7 7 6 12 10 8 8 2 4 7 10 7 19 26 16 25 29 27
8 9 11 29 6 6 4 7 6 4 5 2 2 1 5 3 6 5 10 10 38 24 25 13 1 6 8 9 8 8 8 7 8 4 8 9 8 5 5 9 7 15 17 16 13
9 3 14 36 19 11 9 5 8 8 7 4 4 2 6 9 3 9 5 6 5 11 9 13 7 12 12 7 10 11 10 8 8 5 6 9 6 7 7 11 11 16 10 12 21
21 11 15 8 15 16 9 11 10 7 9 5 8 6 1 6 5 6 2 7 6 8 9 9 7 4 10 5 7 8 10 15 15 13 10 8 12 20 13 12 10 6 4 7 8
27 15 18 5 21 28 21 18 16 6 14 6 7 5 8 7 3 3 6 8 0 4 6 6 4 7 6 11 9 4 5 4 5 4 13 10 15 12 18 14 4 5 4 7 9
44 32 21 16 9 20 18 22 21 16 17 14 17 9 7 11 28 21 15 9 10 6 3 4 7 5 6 5 11 6 26 13 9 10 11 13 23 9 11 14 19 25 27 31 36
Wind_Direction_850mb
319 306 294 283 279 277 281 279 276 277 285 286 285 277 275 276 270 268 263 260 268 264 263 270 273 283 280 278 248 201 58 242 235 187 259 311 178 160 176 150 154 175 194 224 176
326 312 308 300 288 277 272 275 277 276 277 286 282 279 277 282 283 271 261 259 260 259 256 254 266 276 244 243 232 172 158 228 232 175 224 265 215 160 145 133 116 166 185 174 171
333 324 309 307 304 291 279 268 269 272 273 274 276 277 276 281 295 286 267 254 248 249 246 240 246 254 241 213 206 194 212 208 234 240 253 274 241 205 144 237 194 185 163 166 172
318 328 312 305 307 299 291 281 267 265 269 269 274 271 270 265 255 231 118 19 238 238 236 231 231 210 211 212 207 195 248 239 203 206 244 270 228 239 181 200 213 211 201 176 181
313 318 320 306 307 306 297 290 278 265 261 265 264 261 251 238 238 247 268 311 301 242 230 218 205 199 186 215 225 206 240 245 240 208 233 269 258 200 226 179 183 194 188 189 190
315 317 320 307 307 301 295 292 283 266 260 257 256 254 231 240 260 255 256 268 263 245 225 207 211 205 223 225 186 224 219 228 249 238 229 209 241 223 211 191 187 194 192 195 198
322 313 315 312 307 308 302 302 289 275 255 254 254 245 229 242 253 238 240 248 243 235 221 217 203 210 219 237 236 221 173 228 224 219 243 204 260 231 194 188 182 187 197 199 206
320 312 316 314 311 310 308 298 291 280 260 246 252 243 241 250 250 245 231 232 227 223 225 214 212 233 230 267 147 154 129 184 229 175 227 174 253 252 198 180 176 187 197 204 210
321 314 314 320 308 312 310 306 295 278 262 247 246 234 249 244 234 233 223 229 231 219 220 199 202 213 203 196 129 221 188 196 274 201 151 174 252 250 210 195 186 189 195 205 211
318 312 319 316 313 312 312 304 301 273 261 248 242 238 239 233 228 225 227 226 239 209 208 203 200 188 206 175 202 161 146 194 210 215 183 193 252 287 151 213 213 201 204 209 214
319 313 318 317 316 312 317 320 331 232 222 207 218 219 238 226 233 219 210 198 203 189 191 202 170 207 193 168 164 163 184 199 224 184 171 209 223 257 262 269 235 222 209 215 224
322 316 320 316 319 313 317 327 285 285 253 218 212 235 224 215 224 206 193 176 182 190 168 181 230 189 186 179 201 204 180 177 11 331 168 180 244 255 268 257 236 234 229 228 228
319 316 319 316 319 316 314 327 300 236 225 191 222 235 245 226 235 196 185 184 147 168 198 189 239 173 175 182 190 210 192 185 171 118 53 94 309 278 256 234 250 243 242 239 239
317 318 319 316 320 320 319 340 336 169 241 190 194 217 203 188 253 200 185 166 175 190 143 262 250 171 154 205 163 211 185 166 141 106 203 113 269 295 273 265 243 246 239 241 243
315 316 318 316 316 327 332 341 324 171 251 157 160 188 179 199 90 182 184 182 169 165 140 218 191 148 185 190 163 192 150 143 118 106 120 244 116 269 292 278 258 252 257 244 242
317 314 316 312 312 329 338 336 357 175 270 211 149 145 126 209 318 161 178 194 162 117 42 178 334 132 179 88 139 138 87 48 53 77 312 203 171 253 218 218 252 135 222 180 164
317 315 313 305 311 338 342 336 10 340 336 328 152 196 136 159 192 177 177 186 162 116 171 353 356 310 140 83 33 97 92 34 18 9 219 6 162 247 242 248 286 159 127 119 129
314 316 306 296 308 338 341 17 45 282 335 324 238 159 200 146 237 182 163 178 211 100 122 139 276 185 186 160 173 163 150 153 179 190 206 115 217 253 262 241 201 144 122 125 131
310 313 307 304 300 343 337 31 202 321 347 332 215 150 155 162 115 126 180 190 175 170 134 129 227 333 163 121 149 194 185 162 105 20 86 204 271 303 151 85 112 128 136 126 118
302 312 301 273 248 146 66 262 270 276 117 300 359 31 325 156 174 156 155 210 263 189 138 179 120 357 117 111 48 142 162 79 358 119 218 256 275 236 133 160 141 122 130 125 120
316 312 270 160 159 109 150 225 269 276 267 47 2 312 351 341 147 218 160 206 217 187 157 122 97 265 125 204 171 124 214 82 118 142 157 143 252 236 190 167 150 151 130 125 122
268 347 227 171 119 145 202 205 224 298 309 253 203 210 103 331 301 215 191 192 205 118 173 231 114 148 180 263 210 171 188 149 138 220 232 153 253 330 133 150 138 137 134 132 121
243 238 219 190 188 187 180 276 288 255 266 344 304 336 47 41 327 267 200 252 185 189 173 180 141 79 14 354 350 215 194 146 123 80 191 133 238 338 72 97 105 136 152 160 165
222 250 200 209 232 154 149 224 278 260 285 284 297 264 153 216 186 291 314 1 328 204 179 94 152 162 178 193 149 188 189 154 124 123 173 217 172 157 155 138 142 138 168 219 232
221 224 190 188 223 210 167 188 206 223 232 229 352 253 164 330 152 286 229 13 358 154 115 130 149 111 112 348 82 93 156 169 193 191 165 198 187 213 187 175 190 195 225 250 239
193 187 182 203 186 191 203 202 198 197 166 224 185 247 214 201 235 193 352 20 55 310 175 180 135 127 176 126 87 110 198 147 298 174 235 157 256 239 245 255 203 337 330 245 303
218 197 189 191 162 180 212 199 200 158 221 195 203 166 184 218 180 143 102 40 313 207 238 122 127 97 190 151 104 352 227 198 202 206 179 207 237 170 236 277 296 310 299 293 294